This is the latest recevied weather packets stored in our database for station/object FW0690. If no packets are shown the sender has not sent any weather packets the latest 10 day(s).
| Time | Temp. | Humidity | Pressure | Rain* | Wind** | Luminosity | Snow |
|---|---|---|---|---|---|---|---|
| 1778149963 | 30° C | 23% | 1014.1 hPa | - | - | 26 W/m² | - |
| 1778149963 | 30° C | 23% | 1014.1 hPa | - | - | 26 W/m² | - |
| 1778149603 | 30° C | 23% | 1014.2 hPa | - | - | 25 W/m² | - |
| 1778149243 | 30° C | 23% | 1014.3 hPa | - | - | 25 W/m² | - |
| 1778149243 | 30° C | 23% | 1014.3 hPa | - | - | 25 W/m² | - |
| 1778148883 | 28.89° C | 23% | 1014.3 hPa | - | - | 25 W/m² | - |
| 1778148523 | 28.33° C | 22% | 1014.3 hPa | - | - | 27 W/m² | - |
| 1778148163 | 28.89° C | 23% | 1014.4 hPa | - | - | 68 W/m² | - |
| 1778148163 | 28.89° C | 23% | 1014.4 hPa | - | - | 68 W/m² | - |
| 1778147803 | 28.89° C | 23% | 1014.4 hPa | - | - | 166 W/m² | - |
| 1778147443 | 28.33° C | 24% | 1014.4 hPa | - | - | 169 W/m² | - |
| 1778147083 | 28.33° C | 24% | 1014.5 hPa | - | - | 74 W/m² | - |
| 1778146723 | 28.33° C | 25% | 1014.5 hPa | - | - | 52 W/m² | - |
| 1778146363 | 27.78° C | 25% | 1014.5 hPa | - | - | 68 W/m² | - |
| 1778146003 | 27.78° C | 25% | 1014.5 hPa | - | - | 30 W/m² | - |
| 1778145643 | 26.67° C | 25% | 1014.5 hPa | - | - | 24 W/m² | - |
| 1778145643 | 26.67° C | 25% | 1014.5 hPa | - | - | 24 W/m² | - |
| 1778145283 | 27.22° C | 26% | 1014.6 hPa | - | - | 24 W/m² | - |
| 1778144923 | 26.11° C | 27% | 1014.5 hPa | - | - | 28 W/m² | - |
| 1778144563 | 26.11° C | 27% | 1014.6 hPa | - | - | 33 W/m² | - |
| 1778144203 | 25.56° C | 28% | 1014.5 hPa | - | - | 40 W/m² | - |
| 1778144203 | 25.56° C | 28% | 1014.5 hPa | - | - | 40 W/m² | - |
| 1778143843 | 24.44° C | 28% | 1014.5 hPa | - | - | 44 W/m² | - |
| 1778143843 | 24.44° C | 28% | 1014.5 hPa | - | - | 44 W/m² | - |
| 1778143483 | 23.89° C | 28% | 1014.5 hPa | - | - | 23 W/m² | - |
* Rain since midnight (hover to see other rain measurements)
** Current wind speed in m/s (hover to see current wind gust speed)